Flag for Marshall Islands Weather past 2 weeks in Kwajalein, Marshall Islands

Now
82 °F

Clear.


Feels Like: 89 °F
Forecast: 80 / 85 °F
Wind: 9 mph from Southeast

Location: Kwajalein / Bucholz

Current Time: Sep 2, 2015 at 4:15:41 AM

Latest Report: Sep 2, 2015 at 3:40 AM


Visibility: 10 mi

Pressure: 29.81 "Hg

Humidity: 79%

Dew point: 75 °F

Location of KwajaleinLocation

Historic Weather in Kwajalein — Graph

°F

Kwajalein temperature yesterday

Maximum temperature yesterday: 89 °F (at 5:00 PM)
Minimum temperature yesterday: 82 °F (at 6:40 AM)
Average temperature yesterday: 85 °F

Past Weeks' High & Low Weather Summary

 TemperatureHumidityPressure
High89 °F (Sep 1, 5:00 PM)92% (Aug 30, 3:00 AM)29.92 "Hg (Aug 30, 3:00 AM)
Low78 °F (Aug 20, 7:20 AM)61% (Sep 1, 5:00 PM)29.71 "Hg (Aug 27, 4:00 AM)
Average83 °F77%29.81 "Hg
* Reported Aug 18 3:00 AM — Sep 2 3:00 AM, Kwajalein, Weather by CustomWeather, © 2015

Note: Actual official high and low records may vary slightly from our data, if they occured in-between our weather recording intervals... More about our weather records

Advertising

Kwajalein weather history for previous 24 hours

 ConditionsComfort  
Time TempWeatherWind HumidityBarometerVisibility
3:00 AM
Wed, Sep 2
82 °FPartly cloudy.10 mph78%29.81 "Hg10 mi
2:20 AM83 °FPartly cloudy.5 mph76%29.82 "Hg10 mi
2:00 AM83 °FMostly cloudy.5 mph76%29.83 "Hg10 mi
1:20 AM84 °FClear.8 mph77%29.83 "Hg10 mi
1:00 AM84 °FPassing clouds.9 mph77%29.84 "Hg10 mi
12:20 AM84 °FPassing clouds.8 mph76%29.84 "Hg10 mi
12:00 AM84 °FClear.7 mph77%29.85 "Hg10 mi
11:40 PM
Tue, Sep 1
83 °FClear.9 mph77%29.86 "Hg10 mi
11:20 PM83 °FPassing clouds.8 mph78%29.86 "Hg10 mi
11:00 PM83 °FPassing clouds.8 mph77%29.86 "Hg10 mi
10:40 PM84 °FPassing clouds.6 mph77%29.86 "Hg10 mi
10:20 PM84 °FPartly cloudy.6 mph76%29.86 "Hg10 mi
10:00 PM84 °FPassing clouds.7 mph74%29.85 "Hg7 mi
9:40 PM84 °FPassing clouds.7 mph73%29.85 "Hg10 mi
9:20 PM85 °FPassing clouds.6 mph73%29.84 "Hg10 mi
9:00 PM85 °FPassing clouds.6 mph73%29.83 "Hg10 mi
8:40 PM85 °FPassing clouds.6 mph72%29.82 "Hg10 mi
8:20 PM85 °FClear.5 mph72%29.82 "Hg10 mi
8:00 PM85 °FPassing clouds.6 mph71%29.81 "Hg10 mi
7:40 PM86 °FClear.7 mph70%29.80 "Hg10 mi
7:20 PM86 °FPassing clouds.5 mph67%29.80 "Hg10 mi
7:00 PM87 °FPassing clouds.7 mph67%29.78 "Hg10 mi
6:20 PM87 °FScattered clouds.7 mph64%29.77 "Hg10 mi
6:00 PM88 °FScattered clouds.6 mph63%29.76 "Hg10 mi
5:40 PM88 °FScattered clouds.7 mph62%29.75 "Hg10 mi
5:20 PM88 °FSunny.6 mph62%29.75 "Hg10 mi
5:00 PM89 °FScattered clouds.6 mph61%29.75 "Hg10 mi
3:40 PM88 °FSunny.6 mph63%29.74 "Hg10 mi
3:00 PM88 °FScattered clouds.5 mph65%29.75 "Hg10 mi
2:40 PM88 °FSunny.7 mph65%29.75 "Hg10 mi
2:20 PM88 °FScattered clouds.5 mph65%29.75 "Hg10 mi
2:00 PM88 °FSunny.5 mph65%29.75 "Hg10 mi
1:40 PM88 °FScattered clouds.No wind64%29.75 "Hg10 mi
1:20 PM88 °FBroken clouds.3 mph64%29.77 "Hg10 mi
1:00 PM88 °FScattered clouds.No wind64%29.78 "Hg10 mi
12:20 PM88 °FScattered clouds.3 mph65%29.80 "Hg10 mi
12:00 PM88 °FBroken clouds.5 mph66%29.81 "Hg10 mi
11:40 AM87 °FScattered clouds.5 mph67%29.82 "Hg10 mi
11:20 AM87 °FSunny.No wind67%29.83 "Hg10 mi
11:00 AM87 °FSunny.No wind67%29.83 "Hg10 mi
10:40 AM87 °FSunny.No wind68%29.83 "Hg10 mi
10:20 AM86 °FSunny.No wind68%29.84 "Hg10 mi
10:00 AM86 °FSunny.No wind70%29.84 "Hg10 mi
9:20 AM84 °FSunny.No wind74%29.83 "Hg10 mi
9:00 AM83 °FSunny.No wind76%29.83 "Hg10 mi
8:40 AM83 °FSunny.No wind77%29.82 "Hg10 mi
8:20 AM83 °FSunny.No wind78%29.82 "Hg10 mi
8:00 AM82 °FSunny.No wind78%29.81 "Hg10 mi
7:40 AM82 °FSunny.No wind79%29.81 "Hg10 mi
7:20 AM82 °FSunny.3 mph79%29.80 "Hg10 mi
7:00 AM82 °FSunny.3 mph78%29.80 "Hg7 mi
6:40 AM82 °FSunny.No wind78%29.79 "Hg10 mi
6:20 AM82 °FClear.No wind78%29.78 "Hg10 mi
6:00 AM82 °FClear.3 mph78%29.78 "Hg10 mi
5:40 AM82 °FClear.3 mph78%29.78 "Hg10 mi
5:20 AM82 °FClear.No wind78%29.78 "Hg10 mi
5:00 AM82 °FClear.No wind79%29.77 "Hg10 mi
4:40 AM82 °FClear.No wind79%29.77 "Hg10 mi
4:20 AM82 °FClear.3 mph79%29.78 "Hg10 mi
4:00 AM82 °FClear.3 mph78%29.78 "Hg10 mi
Weather by CustomWeather, © 2015

See weather overviewHow to use our weather pages